Вернуться в каталог

STARLINK-4261

АктивенСвязьVLEO
NORAD 52868·PAYLOAD·🇺🇸 United States

Запущен Jun 17, 2022 с Cape Canaveral Space Force Station

Loading…

Ближайшие Пролёты (ближайшие 24 часа)

TLE

СвежийSource: CelesTrak SupGP

Эпоха: Sep 15, 2026, 01:47 UTC

1 52868C 22062AQ  26258.07479167 -.00020460  00000+0 -58534-3 0  2584
2 52868  53.1570 243.6189 0001227  96.8459  46.1980 15.35411122    12

Отслеживайте STARLINK-4261 в реальном времени с AllMySat

Download on the App Store